Tracking 29747 objects as of 9-Oct-2024
HD Live streaming from Space Station
objects crossing your sky now

SL-14 DEB

Track SL-14 DEB now!
10-day predictions


NORAD ID: 45311
Int'l Code: 1991-056AZ
Perigee: 1,185.4 km
Apogee: 1,208.9 km
Inclination: 82.6 °
Period: 109.2 minutes
Semi major axis: 7568 km
RCS: Unknown
Launch date: August 15, 1991
Source: Commonwealth of Independent States (former USSR) (CIS)
Launch site: PLESETSK MISSILE AND SPACE COMPLEX (PKMTR)

Note: This is SATELLITE DEBRIS
Your satellite tracking list
Your tracking list is empty




NASA's NSSDC Master Catalog

Two Line Element Set (TLE):
1 45311U 91056AZ  24282.87782577  .00000452  00000-0  11159-2 0  9994
2 45311  82.5525 210.8303 0015463 214.8671 145.1441 13.18615413222377
Source of the keplerian elements: AFSPC